Location: Ariel
(45.9570°N, 122.5700°W)
Time: 17:28:53
(UTC-07:00)

Altair - Pass Details

Date: 23 July 2019
Orbit: 1501 x 1683 km, 47.2° (Epoch: 20 August)

Event Time Altitude Azimuth Distance (km) Brightness Sun altitude
Rises 16:38:40 0° 284° (WNW) 4,637 10.7 41.4°
Reaches altitude 10° 16:41:40 10° 284° (WNW) 3,658 10.4 40.9°
Maximum altitude 16:50:53 86° 198° (SSW) 1,532 8.3 39.3°
Drops below altitude 10° 17:00:21 10° 111° (ESE) 3,747 9.2 37.7°
Sets 17:03:27 0° 111° (ESE) 4,754 9.7 37.2°
